Powrót do katalogu

STARLINK-31972

AktywnyŁącznośćVLEO
NORAD 59923·PAYLOAD·🇺🇸 United States

Wystrzelony Jun 1, 2024 z Cape Canaveral Space Force Station

Loading…

Następne Przeloty (najbliższe 24 godziny)

TLE

ŚwieżeSource: CelesTrak SupGP

Epoka: Sep 14, 2026, 22:11 UTC

1 59923C 24106B   26257.92479167 -.00021912  00000+0 -79390-3 0  2572
2 59923  43.0015 343.9243 0001663 276.2064  48.9412 15.27578412    15

Śledź STARLINK-31972 w czasie rzeczywistym z AllMySat

Download on the App Store